Location: Jastrzębia Góra
(54.8312°N, 18.3037°E)
Time: 01:18:40
(UTC+02:00)

ISS - Visible Passes

Search period start: 18 October 2019 00:00
Search period end: 27 October 2019 23:00
Orbit: 411 x 421 km, 51.6° (Epoch: 17 October)

Date Brightness Start Highest point End Pass type
(mag) Time Alt. Az. Time Alt. Az. Time Alt. Az.
24 Oct -0.6 06:52:35 10° SSE 06:53:55 12° SE 06:55:16 10° ESE visible
26 Oct -1.3 06:50:29 10° SSW 06:53:05 21° SSE 06:55:41 10° E visible
27 Oct -1.0 05:02:35 10° S 05:04:42 16° SSE 05:06:49 10° ESE visible
